GLO1784 SBBR-SBEG

Flight info

Callsign GLO1784
Flight time 2h 32m
Altitude 34000
Route UGUGA UM409 UKAGA/N0457F360 UM409 NEMEL DCT IRUMO
Aircraft B738/M-SDE2E3FGHIRWXY/LB1

Departure

Time 2026-04-27 23:30
Airport Presidente Juscelino Kubitschek International Airport (SBBR)

Arrival

Time 2026-04-28 02:02
Airport Eduardo Gomes International Airport (SBEG)
Time Latitude Longitude Altitude Speed Heading
2026-04-27 23:16 -15.87264 -47.91757 3464 ft 0 kts 356°
2026-04-27 23:23 -15.87278 -47.91755 3463 ft 2 kts 355°
2026-04-27 23:23 -15.87300 -47.91754 3463 ft 2 kts
2026-04-27 23:23 -15.87310 -47.91758 3463 ft 2 kts 43°
2026-04-27 23:23 -15.87318 -47.91773 3462 ft 2 kts 78°
2026-04-27 23:24 -15.87320 -47.91783 3463 ft 1 kts 84°
2026-04-27 23:24 -15.87320 -47.91784 3463 ft 0 kts 84°
2026-04-27 23:25 -15.87320 -47.91779 3463 ft 3 kts 84°
2026-04-27 23:25 -15.87315 -47.91732 3464 ft 10 kts 86°
2026-04-27 23:25 -15.87311 -47.91637 3463 ft 16 kts 87°
2026-04-27 23:26 -15.87382 -47.91571 3463 ft 16 kts 175°
2026-04-27 23:26 -15.87492 -47.91564 3462 ft 16 kts 176°
2026-04-27 23:26 -15.87598 -47.91557 3460 ft 15 kts 176°
2026-04-27 23:26 -15.87701 -47.91544 3459 ft 15 kts 156°
2026-04-27 23:27 -15.87721 -47.91445 3456 ft 15 kts 86°
2026-04-27 23:27 -15.87715 -47.91339 3454 ft 14 kts 86°
2026-04-27 23:27 -15.87708 -47.91238 3453 ft 14 kts 86°
2026-04-27 23:27 -15.87702 -47.91141 3455 ft 13 kts 86°
2026-04-27 23:28 -15.87695 -47.91048 3452 ft 13 kts 85°
2026-04-27 23:28 -15.87692 -47.90959 3450 ft 12 kts 104°
2026-04-27 23:28 -15.87755 -47.90934 3451 ft 10 kts 179°
2026-04-27 23:28 -15.87830 -47.90939 3451 ft 13 kts 200°
2026-04-27 23:29 -15.87878 -47.91061 3453 ft 38 kts 266°
2026-04-27 23:29 -15.87911 -47.91576 3456 ft 103 kts 266°
2026-04-27 23:29 -15.87972 -47.92517 3478 ft 157 kts 266°
2026-04-27 23:29 -15.88052 -47.93793 3659 ft 190 kts 267°
2026-04-27 23:30 -15.88133 -47.95280 3848 ft 224 kts 268°
2026-04-27 23:30 -15.88193 -47.96970 4324 ft 236 kts 266°
2026-04-27 23:30 -15.88303 -47.98642 5193 ft 228 kts 265°
2026-04-27 23:30 -15.88085 -48.00257 5764 ft 236 kts 297°
2026-04-27 23:31 -15.86963 -48.01587 5972 ft 257 kts 322°
2026-04-27 23:31 -15.85485 -48.02785 6220 ft 280 kts 323°
2026-04-27 23:31 -15.83970 -48.03988 6771 ft 287 kts 323°
2026-04-27 23:31 -15.82380 -48.05261 7456 ft 290 kts 322°
2026-04-27 23:32 -15.80784 -48.06555 8146 ft 292 kts 322°
2026-04-27 23:32 -15.79187 -48.07864 8837 ft 295 kts 321°
2026-04-27 23:32 -15.77570 -48.09202 9560 ft 297 kts 321°
2026-04-27 23:32 -15.75950 -48.10551 10249 ft 300 kts 321°
2026-04-27 23:33 -15.74296 -48.11934 10586 ft 317 kts 321°
2026-04-27 23:33 -15.72513 -48.13430 10738 ft 338 kts 321°
2026-04-27 23:33 -15.70633 -48.15011 10943 ft 356 kts 321°
2026-04-27 23:33 -15.68690 -48.16646 11426 ft 362 kts 321°
2026-04-27 23:34 -15.66731 -48.18297 12068 ft 363 kts 321°
2026-04-27 23:34 -15.64768 -48.19953 12709 ft 364 kts 321°
2026-04-27 23:34 -15.62796 -48.21616 13288 ft 368 kts 321°
2026-04-27 23:34 -15.60803 -48.23297 13858 ft 371 kts 322°
2026-04-27 23:35 -15.58792 -48.24992 14374 ft 373 kts 322°
2026-04-27 23:35 -15.56770 -48.26697 14856 ft 376 kts 322°
2026-04-27 23:35 -15.54758 -48.28393 15332 ft 379 kts 322°
2026-04-27 23:35 -15.52701 -48.30126 15798 ft 383 kts 322°
2026-04-27 23:36 -15.50599 -48.31896 16269 ft 386 kts 322°
2026-04-27 23:36 -15.48552 -48.33620 16721 ft 388 kts 322°
2026-04-27 23:36 -15.46403 -48.35429 17181 ft 391 kts 322°
2026-04-27 23:36 -15.44311 -48.37190 17616 ft 394 kts 322°
2026-04-27 23:37 -15.42174 -48.38989 18044 ft 397 kts 322°
2026-04-27 23:37 -15.40019 -48.40802 18452 ft 400 kts 322°
2026-04-27 23:37 -15.37848 -48.42628 18835 ft 403 kts 322°
2026-04-27 23:37 -15.35669 -48.44460 19246 ft 404 kts 322°
2026-04-27 23:38 -15.33487 -48.46295 19645 ft 405 kts 322°
2026-04-27 23:38 -15.31292 -48.48139 20030 ft 407 kts 322°
2026-04-27 23:38 -15.29088 -48.49991 20415 ft 409 kts 322°
2026-04-27 23:38 -15.26873 -48.51852 20795 ft 411 kts 322°
2026-04-27 23:39 -15.24648 -48.53720 21170 ft 412 kts 322°
2026-04-27 23:39 -15.22417 -48.55592 21538 ft 414 kts 322°
2026-04-27 23:39 -15.20171 -48.57478 21907 ft 416 kts 322°
2026-04-27 23:39 -15.17919 -48.59366 22270 ft 418 kts 322°
2026-04-27 23:40 -15.15660 -48.61261 22622 ft 419 kts 322°
2026-04-27 23:40 -15.13386 -48.63168 22994 ft 421 kts 322°
2026-04-27 23:40 -15.11108 -48.65078 23349 ft 422 kts 322°
2026-04-27 23:40 -15.08821 -48.66994 23679 ft 424 kts 322°
2026-04-27 23:41 -15.06523 -48.68919 23962 ft 426 kts 322°
2026-04-27 23:41 -15.04219 -48.70849 24240 ft 427 kts 322°
2026-04-27 23:41 -15.01904 -48.72788 24523 ft 429 kts 322°
2026-04-27 23:41 -14.99582 -48.74731 24800 ft 430 kts 322°
2026-04-27 23:42 -14.97252 -48.76681 25072 ft 431 kts 322°
2026-04-27 23:42 -14.94914 -48.78637 25330 ft 433 kts 322°
2026-04-27 23:42 -14.92570 -48.80598 25593 ft 435 kts 322°
2026-04-27 23:42 -14.90215 -48.82567 25859 ft 436 kts 322°
2026-04-27 23:43 -14.87854 -48.84540 26117 ft 437 kts 322°
2026-04-27 23:43 -14.85481 -48.86523 26373 ft 439 kts 322°
2026-04-27 23:43 -14.83103 -48.88509 26613 ft 441 kts 322°
2026-04-27 23:43 -14.80715 -48.90504 26860 ft 442 kts 322°
2026-04-27 23:44 -14.78321 -48.92502 27107 ft 444 kts 322°
2026-04-27 23:44 -14.75914 -48.94511 27344 ft 445 kts 322°
2026-04-27 23:44 -14.73533 -48.96498 27569 ft 447 kts 322°
2026-04-27 23:44 -14.71079 -48.98545 27809 ft 448 kts 322°
2026-04-27 23:45 -14.68651 -49.00569 28040 ft 449 kts 322°
2026-04-27 23:45 -14.66216 -49.02599 28256 ft 451 kts 322°
2026-04-27 23:45 -14.63801 -49.04612 28464 ft 453 kts 322°
2026-04-27 23:45 -14.61312 -49.06686 28684 ft 454 kts 322°
2026-04-27 23:46 -14.58851 -49.08736 28902 ft 455 kts 322°
2026-04-27 23:46 -14.56382 -49.10792 29116 ft 457 kts 322°
2026-04-27 23:46 -14.53911 -49.12849 29379 ft 456 kts 322°
2026-04-27 23:46 -14.51442 -49.14903 29709 ft 455 kts 321°
2026-04-27 23:47 -14.48984 -49.16948 30053 ft 453 kts 321°
2026-04-27 23:47 -14.46560 -49.18964 30310 ft 453 kts 321°
2026-04-27 23:47 -14.44111 -49.21001 30543 ft 453 kts 321°
2026-04-27 23:47 -14.41653 -49.23044 30745 ft 454 kts 321°
2026-04-27 23:48 -14.39196 -49.25085 30973 ft 454 kts 321°
2026-04-27 23:48 -14.36740 -49.27126 31239 ft 453 kts 321°
2026-04-27 23:48 -14.34288 -49.29162 31496 ft 452 kts 321°
2026-04-27 23:48 -14.31836 -49.31198 31728 ft 452 kts 321°
2026-04-27 23:49 -14.29387 -49.33231 31977 ft 452 kts 321°
2026-04-27 23:49 -14.26940 -49.35261 32233 ft 452 kts 321°
2026-04-27 23:49 -14.24489 -49.37294 32462 ft 452 kts 321°
2026-04-27 23:49 -14.22041 -49.39324 32696 ft 452 kts 321°
2026-04-27 23:50 -14.19591 -49.41355 32946 ft 451 kts 321°
2026-04-27 23:50 -14.17148 -49.43381 33202 ft 451 kts 321°
2026-04-27 23:50 -14.14708 -49.45402 33428 ft 451 kts 321°
2026-04-27 23:50 -14.12264 -49.47428 33661 ft 450 kts 321°
2026-04-27 23:51 -14.09828 -49.49446 33899 ft 448 kts 321°
2026-04-27 23:51 -14.07402 -49.51455 33949 ft 449 kts 321°
2026-04-27 23:51 -14.02518 -49.55499 33957 ft 451 kts 320°
2026-04-27 23:52 -13.97754 -49.59680 33958 ft 450 kts 319°
2026-04-27 23:52 -13.93061 -49.63927 33956 ft 449 kts 319°
2026-04-27 23:53 -13.88363 -49.68156 33955 ft 448 kts 319°
2026-04-27 23:53 -13.83667 -49.72355 33951 ft 447 kts 319°
2026-04-27 23:54 -13.78967 -49.76545 33954 ft 447 kts 319°
2026-04-27 23:54 -13.74268 -49.80730 33954 ft 447 kts 319°
2026-04-27 23:55 -13.69564 -49.84919 33953 ft 447 kts 319°
2026-04-27 23:55 -13.64860 -49.89106 33951 ft 448 kts 319°
2026-04-27 23:56 -13.60177 -49.93272 33955 ft 448 kts 319°
2026-04-27 23:56 -13.55457 -49.97468 33948 ft 449 kts 319°
2026-04-27 23:57 -13.50723 -50.01675 33947 ft 450 kts 319°
2026-04-27 23:57 -13.45985 -50.05883 33949 ft 451 kts 319°
2026-04-27 23:58 -13.41236 -50.10099 33952 ft 451 kts 319°
2026-04-27 23:58 -13.36480 -50.14318 33943 ft 452 kts 319°
2026-04-27 23:59 -13.31723 -50.18537 33945 ft 452 kts 319°
2026-04-27 23:59 -13.26959 -50.22759 33947 ft 453 kts 319°
2026-04-28 00:00 -13.22192 -50.26983 33944 ft 453 kts 319°
2026-04-28 00:00 -13.17422 -50.31206 33943 ft 453 kts 319°
2026-04-28 00:01 -13.12654 -50.35424 33944 ft 453 kts 319°
2026-04-28 00:01 -13.07891 -50.39638 33943 ft 452 kts 319°
2026-04-28 00:02 -13.03123 -50.43856 33940 ft 452 kts 319°
2026-04-28 00:02 -12.98358 -50.48068 33937 ft 452 kts 319°
2026-04-28 00:03 -12.93597 -50.52275 33939 ft 452 kts 319°
2026-04-28 00:03 -12.88836 -50.56479 33938 ft 452 kts 319°
2026-04-28 00:04 -12.81699 -50.62778 33938 ft 451 kts 319°
2026-04-28 00:05 -12.76938 -50.66977 33940 ft 451 kts 319°
2026-04-28 00:05 -12.72211 -50.71145 33942 ft 451 kts 319°
2026-04-28 00:06 -12.67452 -50.75338 33946 ft 451 kts 319°
2026-04-28 00:06 -12.62693 -50.79529 33947 ft 451 kts 319°
2026-04-28 00:07 -12.57928 -50.83723 33946 ft 451 kts 319°
2026-04-28 00:07 -12.53165 -50.87913 33948 ft 452 kts 319°
2026-04-28 00:08 -12.48401 -50.92103 33948 ft 452 kts 319°
2026-04-28 00:08 -12.43636 -50.96290 33948 ft 452 kts 319°
2026-04-28 00:09 -12.38864 -51.00483 33945 ft 452 kts 319°
2026-04-28 00:09 -12.34088 -51.04677 33953 ft 452 kts 319°
2026-04-28 00:10 -12.30115 -51.08164 33949 ft 453 kts 319°
2026-04-28 00:10 -12.25334 -51.12359 33952 ft 453 kts 319°
2026-04-28 00:11 -12.20547 -51.16556 33953 ft 453 kts 319°
2026-04-28 00:11 -12.15757 -51.20754 33952 ft 454 kts 319°
2026-04-28 00:12 -12.10963 -51.24955 33954 ft 454 kts 319°
2026-04-28 00:12 -12.06166 -51.29158 33957 ft 454 kts 319°
2026-04-28 00:13 -12.01368 -51.33360 33956 ft 455 kts 319°
2026-04-28 00:13 -11.96567 -51.37563 33960 ft 455 kts 319°
2026-04-28 00:14 -11.91765 -51.41764 33960 ft 455 kts 319°
2026-04-28 00:14 -11.86960 -51.45967 33959 ft 454 kts 319°
2026-04-28 00:15 -11.82157 -51.50165 33963 ft 454 kts 319°
2026-04-28 00:15 -11.77360 -51.54356 33960 ft 454 kts 319°
2026-04-28 00:16 -11.72595 -51.58517 33964 ft 453 kts 319°
2026-04-28 00:16 -11.67775 -51.62725 33967 ft 453 kts 319°
2026-04-28 00:17 -11.63020 -51.66873 33965 ft 453 kts 319°
2026-04-28 00:17 -11.58234 -51.71047 33959 ft 452 kts 320°
2026-04-28 00:18 -11.53454 -51.75214 33961 ft 452 kts 320°
2026-04-28 00:18 -11.48675 -51.79377 33963 ft 452 kts 320°
2026-04-28 00:19 -11.43895 -51.83540 33962 ft 452 kts 320°
2026-04-28 00:19 -11.39118 -51.87699 33961 ft 452 kts 320°
2026-04-28 00:20 -11.34339 -51.91858 33960 ft 452 kts 320°
2026-04-28 00:20 -11.29557 -51.96018 33962 ft 452 kts 320°
2026-04-28 00:21 -11.24752 -52.00154 33961 ft 453 kts 320°
2026-04-28 00:21 -11.19907 -52.04251 33965 ft 453 kts 320°
2026-04-28 00:22 -11.15046 -52.08357 33964 ft 454 kts 320°
2026-04-28 00:22 -11.10186 -52.12470 33963 ft 455 kts 321°
2026-04-28 00:23 -11.05323 -52.16589 33970 ft 455 kts 320°
2026-04-28 00:23 -11.00453 -52.20715 33962 ft 456 kts 320°
2026-04-28 00:24 -10.95578 -52.24841 33966 ft 456 kts 321°
2026-04-28 00:24 -10.90705 -52.28965 33969 ft 456 kts 321°
2026-04-28 00:25 -10.85828 -52.33089 33969 ft 456 kts 321°
2026-04-28 00:25 -10.80987 -52.37182 33972 ft 455 kts 321°
2026-04-28 00:26 -10.76119 -52.41296 33971 ft 455 kts 321°
2026-04-28 00:26 -10.71252 -52.45407 33970 ft 455 kts 321°
2026-04-28 00:27 -10.66489 -52.49428 33976 ft 455 kts 321°
2026-04-28 00:27 -10.61621 -52.53536 33972 ft 455 kts 321°
2026-04-28 00:28 -10.56754 -52.57642 33973 ft 455 kts 321°
2026-04-28 00:28 -10.51884 -52.61748 33972 ft 455 kts 321°
2026-04-28 00:29 -10.47014 -52.65853 33971 ft 455 kts 321°
2026-04-28 00:29 -10.42141 -52.69959 33979 ft 455 kts 321°
2026-04-28 00:30 -10.37262 -52.74067 33976 ft 456 kts 321°
2026-04-28 00:30 -10.32376 -52.78180 33977 ft 456 kts 321°
2026-04-28 00:31 -10.27488 -52.82293 33975 ft 457 kts 321°
2026-04-28 00:31 -10.22593 -52.86410 33978 ft 457 kts 321°
2026-04-28 00:32 -10.17733 -52.90497 33977 ft 457 kts 321°
2026-04-28 00:32 -10.12830 -52.94617 33977 ft 458 kts 321°
2026-04-28 00:33 -10.07921 -52.98741 33977 ft 458 kts 321°
2026-04-28 00:33 -10.03012 -53.02865 33982 ft 458 kts 321°
2026-04-28 00:34 -9.98096 -53.06992 33980 ft 458 kts 321°
2026-04-28 00:34 -9.93181 -53.11117 33979 ft 458 kts 321°
2026-04-28 00:35 -9.88326 -53.15304 33977 ft 459 kts 318°
2026-04-28 00:35 -9.83643 -53.19694 33982 ft 459 kts 317°
2026-04-28 00:36 -9.78973 -53.24110 33980 ft 459 kts 317°
2026-04-28 00:36 -9.74286 -53.28497 33986 ft 459 kts 318°
2026-04-28 00:37 -9.69589 -53.32871 33981 ft 458 kts 318°
2026-04-28 00:37 -9.64894 -53.37240 33978 ft 458 kts 318°
2026-04-28 00:38 -9.60197 -53.41612 33981 ft 458 kts 318°
2026-04-28 00:38 -9.55500 -53.45981 33979 ft 458 kts 318°
2026-04-28 00:39 -9.50801 -53.50345 33984 ft 458 kts 318°
2026-04-28 00:39 -9.46100 -53.54699 33981 ft 458 kts 318°
2026-04-28 00:40 -9.41392 -53.59059 33981 ft 458 kts 318°
2026-04-28 00:40 -9.36686 -53.63418 33982 ft 458 kts 318°
2026-04-28 00:41 -9.31980 -53.67776 33982 ft 459 kts 318°
2026-04-28 00:41 -9.27302 -53.72106 33983 ft 459 kts 318°
2026-04-28 00:42 -9.22591 -53.76465 33983 ft 459 kts 318°
2026-04-28 00:42 -9.17880 -53.80823 33986 ft 459 kts 318°
2026-04-28 00:43 -9.13168 -53.85179 33984 ft 459 kts 318°
2026-04-28 00:43 -9.08447 -53.89543 33988 ft 459 kts 318°
2026-04-28 00:44 -9.03731 -53.93900 33983 ft 460 kts 318°
2026-04-28 00:44 -8.99004 -53.98266 33983 ft 460 kts 318°
2026-04-28 00:45 -8.94277 -54.02630 33986 ft 460 kts 318°
2026-04-28 00:45 -8.89607 -54.07049 33980 ft 461 kts 312°
2026-04-28 00:46 -8.85527 -54.12051 33982 ft 461 kts 309°
2026-04-28 00:46 -8.81560 -54.17145 33988 ft 461 kts 309°
2026-04-28 00:47 -8.77563 -54.22223 33985 ft 461 kts 309°
2026-04-28 00:47 -8.73534 -54.27278 33987 ft 461 kts 309°
2026-04-28 00:48 -8.69497 -54.32316 33984 ft 462 kts 309°
2026-04-28 00:48 -8.65451 -54.37359 33988 ft 462 kts 309°
2026-04-28 00:49 -8.61412 -54.42393 33988 ft 462 kts 309°
2026-04-28 00:49 -8.57368 -54.47433 33986 ft 462 kts 310°
2026-04-28 00:50 -8.53305 -54.52496 33997 ft 467 kts 310°
2026-04-28 00:50 -8.49181 -54.57632 33998 ft 474 kts 310°
2026-04-28 00:51 -8.44998 -54.62840 33995 ft 480 kts 310°
2026-04-28 00:51 -8.40763 -54.68110 33998 ft 486 kts 310°
2026-04-28 00:52 -8.36487 -54.73431 33994 ft 490 kts 310°
2026-04-28 00:52 -8.32180 -54.78788 33992 ft 492 kts 310°
2026-04-28 00:53 -8.27858 -54.84161 33987 ft 494 kts 310°
2026-04-28 00:53 -8.23524 -54.89546 33989 ft 494 kts 310°
2026-04-28 00:54 -8.19183 -54.94939 33990 ft 495 kts 310°
2026-04-28 00:54 -8.14845 -55.00325 33988 ft 494 kts 310°
2026-04-28 00:55 -8.10509 -55.05708 33992 ft 494 kts 310°
2026-04-28 00:55 -8.06199 -55.11056 33988 ft 493 kts 310°
2026-04-28 00:56 -8.01879 -55.16414 33990 ft 493 kts 310°
2026-04-28 00:56 -7.97549 -55.21783 33994 ft 493 kts 310°
2026-04-28 00:57 -7.93222 -55.27145 33992 ft 493 kts 310°
2026-04-28 00:57 -7.89625 -55.31601 33988 ft 493 kts 310°
2026-04-28 00:58 -7.85297 -55.36963 33988 ft 493 kts 310°
2026-04-28 00:58 -7.80970 -55.42319 33987 ft 493 kts 310°
2026-04-28 00:59 -7.75906 -55.48587 33990 ft 493 kts 310°
2026-04-28 00:59 -7.72301 -55.53046 33987 ft 493 kts 310°
2026-04-28 01:00 -7.67965 -55.58410 33987 ft 493 kts 310°
2026-04-28 01:00 -7.63629 -55.63770 33989 ft 493 kts 310°
2026-04-28 01:01 -7.59294 -55.69128 33993 ft 493 kts 310°
2026-04-28 01:01 -7.54950 -55.74495 33995 ft 493 kts 310°
2026-04-28 01:02 -7.51051 -55.79311 33990 ft 493 kts 310°
2026-04-28 01:02 -7.46711 -55.84669 33989 ft 493 kts 310°
2026-04-28 01:03 -7.42374 -55.90021 33990 ft 493 kts 310°
2026-04-28 01:03 -7.38036 -55.95373 33990 ft 493 kts 310°
2026-04-28 01:04 -7.33703 -56.00718 33987 ft 493 kts 310°
2026-04-28 01:04 -7.29363 -56.06068 33992 ft 493 kts 310°
2026-04-28 01:05 -7.25029 -56.11411 33986 ft 493 kts 310°
2026-04-28 01:05 -7.20695 -56.16750 33992 ft 492 kts 310°
2026-04-28 01:06 -7.16358 -56.22092 33990 ft 492 kts 310°
2026-04-28 01:06 -7.12030 -56.27421 33994 ft 492 kts 310°
2026-04-28 01:07 -7.07725 -56.32719 33990 ft 492 kts 310°
2026-04-28 01:07 -7.03398 -56.38044 33988 ft 491 kts 310°
2026-04-28 01:08 -6.99071 -56.43367 33993 ft 491 kts 310°
2026-04-28 01:08 -6.94742 -56.48690 33989 ft 491 kts 310°
2026-04-28 01:09 -6.90419 -56.54004 33990 ft 491 kts 310°
2026-04-28 01:09 -6.86094 -56.59319 33994 ft 491 kts 310°
2026-04-28 01:10 -6.81769 -56.64632 33990 ft 490 kts 310°
2026-04-28 01:10 -6.77450 -56.69937 33995 ft 490 kts 310°
2026-04-28 01:11 -6.73127 -56.75244 33988 ft 490 kts 310°
2026-04-28 01:11 -6.68802 -56.80552 33991 ft 490 kts 310°
2026-04-28 01:12 -6.64478 -56.85858 33992 ft 490 kts 310°
2026-04-28 01:12 -6.60153 -56.91162 33991 ft 491 kts 310°
2026-04-28 01:13 -6.55823 -56.96472 33990 ft 491 kts 310°
2026-04-28 01:13 -6.49326 -57.04435 33989 ft 491 kts 310°
2026-04-28 01:14 -6.44993 -57.09744 33987 ft 491 kts 310°
2026-04-28 01:14 -6.40657 -57.15056 33989 ft 492 kts 310°
2026-04-28 01:15 -6.36316 -57.20372 33985 ft 492 kts 310°
2026-04-28 01:15 -6.31975 -57.25687 33985 ft 492 kts 310°
2026-04-28 01:16 -6.27631 -57.31002 33981 ft 492 kts 310°
2026-04-28 01:16 -6.23286 -57.36319 33980 ft 492 kts 310°
2026-04-28 01:17 -6.18944 -57.41630 33982 ft 491 kts 310°
2026-04-28 01:17 -6.16805 -57.44246 33958 ft 478 kts 310°
2026-04-28 01:17 -6.14730 -57.46784 33966 ft 462 kts 310°
2026-04-28 01:18 -6.10684 -57.51730 33986 ft 457 kts 310°
2026-04-28 01:18 -6.06666 -57.56640 33992 ft 457 kts 310°
2026-04-28 01:19 -6.02627 -57.61574 33991 ft 457 kts 310°
2026-04-28 01:19 -5.98600 -57.66492 33986 ft 458 kts 310°
2026-04-28 01:20 -5.94555 -57.71432 33989 ft 458 kts 310°
2026-04-28 01:20 -5.90503 -57.76380 33982 ft 458 kts 310°
2026-04-28 01:21 -5.86447 -57.81331 33986 ft 459 kts 310°
2026-04-28 01:21 -5.82393 -57.86277 33982 ft 459 kts 310°
2026-04-28 01:22 -5.78332 -57.91231 33982 ft 459 kts 310°
2026-04-28 01:22 -5.74268 -57.96189 33983 ft 460 kts 310°
2026-04-28 01:23 -5.70204 -58.01143 33981 ft 460 kts 310°
2026-04-28 01:23 -5.66139 -58.06100 33984 ft 460 kts 310°
2026-04-28 01:24 -5.62070 -58.11059 33976 ft 460 kts 310°
2026-04-28 01:24 -5.58007 -58.16010 33985 ft 459 kts 310°
2026-04-28 01:25 -5.53945 -58.20958 33983 ft 459 kts 310°
2026-04-28 01:25 -5.49889 -58.25897 33983 ft 458 kts 310°
2026-04-28 01:26 -5.45863 -58.30798 33984 ft 457 kts 310°
2026-04-28 01:26 -5.41821 -58.35719 33975 ft 457 kts 310°
2026-04-28 01:27 -5.37782 -58.40635 33977 ft 456 kts 310°
2026-04-28 01:27 -5.33752 -58.45539 33979 ft 455 kts 310°
2026-04-28 01:28 -5.29729 -58.50433 33973 ft 455 kts 310°
2026-04-28 01:28 -5.25706 -58.55325 33978 ft 454 kts 310°
2026-04-28 01:29 -5.21685 -58.60214 33976 ft 454 kts 310°
2026-04-28 01:29 -5.17672 -58.65093 33975 ft 454 kts 310°
2026-04-28 01:30 -5.13650 -58.69981 33978 ft 454 kts 310°
2026-04-28 01:30 -5.09630 -58.74866 33978 ft 454 kts 310°
2026-04-28 01:31 -5.05607 -58.79753 33972 ft 454 kts 310°
2026-04-28 01:31 -5.01582 -58.84642 33975 ft 455 kts 310°
2026-04-28 01:32 -4.97549 -58.89539 33978 ft 456 kts 310°
2026-04-28 01:32 -4.93513 -58.94440 33975 ft 456 kts 310°
2026-04-28 01:33 -4.89496 -58.99316 33976 ft 457 kts 310°
2026-04-28 01:33 -4.85533 -59.04127 33954 ft 435 kts 310°
2026-04-28 01:34 -4.81709 -59.08767 33968 ft 430 kts 310°
2026-04-28 01:34 -4.79796 -59.11087 33692 ft 433 kts 310°
2026-04-28 01:34 -4.77888 -59.13401 33404 ft 428 kts 310°
2026-04-28 01:35 -4.75996 -59.15696 32994 ft 425 kts 310°
2026-04-28 01:35 -4.74118 -59.17974 32623 ft 422 kts 310°
2026-04-28 01:35 -4.72253 -59.20236 32245 ft 420 kts 310°
2026-04-28 01:35 -4.70397 -59.22486 31873 ft 417 kts 310°
2026-04-28 01:36 -4.68554 -59.24721 31497 ft 415 kts 310°
2026-04-28 01:36 -4.66718 -59.26946 31117 ft 414 kts 310°
2026-04-28 01:36 -4.64883 -59.29171 30739 ft 413 kts 310°
2026-04-28 01:36 -4.63081 -59.31355 30352 ft 412 kts 310°
2026-04-28 01:37 -4.61234 -59.33594 29956 ft 411 kts 311°
2026-04-28 01:37 -4.59412 -59.35802 29532 ft 409 kts 311°
2026-04-28 01:37 -4.57605 -59.37991 29130 ft 407 kts 311°
2026-04-28 01:37 -4.55809 -59.40169 28733 ft 404 kts 311°
2026-04-28 01:38 -4.54022 -59.42334 28346 ft 402 kts 311°
2026-04-28 01:38 -4.52247 -59.44484 27961 ft 399 kts 311°
2026-04-28 01:38 -4.50482 -59.46622 27580 ft 397 kts 311°
2026-04-28 01:38 -4.48729 -59.48746 27199 ft 395 kts 311°
2026-04-28 01:39 -4.46984 -59.50860 26834 ft 393 kts 311°
2026-04-28 01:39 -4.45247 -59.52963 26462 ft 391 kts 311°
2026-04-28 01:39 -4.43518 -59.55057 26090 ft 389 kts 311°
2026-04-28 01:39 -4.42377 -59.56439 25834 ft 388 kts 311°
2026-04-28 01:40 -4.40018 -59.59166 25366 ft 384 kts 319°
2026-04-28 01:40 -4.37927 -59.60784 25109 ft 377 kts 330°
2026-04-28 01:40 -4.35636 -59.62018 24818 ft 372 kts 335°
2026-04-28 01:40 -4.33324 -59.63165 24483 ft 370 kts 335°
2026-04-28 01:41 -4.31017 -59.64298 24136 ft 369 kts 336°
2026-04-28 01:41 -4.28719 -59.65427 23819 ft 367 kts 335°
2026-04-28 01:41 -4.26433 -59.66557 23499 ft 365 kts 335°
2026-04-28 01:41 -4.24160 -59.67685 23129 ft 363 kts 335°
2026-04-28 01:42 -4.21932 -59.68796 22777 ft 361 kts 335°
2026-04-28 01:42 -4.19692 -59.69915 22429 ft 359 kts 335°
2026-04-28 01:42 -4.17464 -59.71029 22072 ft 357 kts 335°
2026-04-28 01:42 -4.15248 -59.72139 21731 ft 355 kts 335°
2026-04-28 01:43 -4.13045 -59.73242 21390 ft 353 kts 335°
2026-04-28 01:43 -4.10855 -59.74339 21059 ft 351 kts 335°
2026-04-28 01:43 -4.08674 -59.75431 20729 ft 349 kts 335°
2026-04-28 01:43 -4.06508 -59.76516 20404 ft 348 kts 335°
2026-04-28 01:44 -4.04349 -59.77598 20087 ft 346 kts 335°
2026-04-28 01:44 -4.02205 -59.78672 19771 ft 344 kts 335°
2026-04-28 01:44 -4.00069 -59.79742 19454 ft 342 kts 335°
2026-04-28 01:44 -3.97946 -59.80805 19153 ft 340 kts 335°
2026-04-28 01:45 -3.95833 -59.81863 18855 ft 339 kts 335°
2026-04-28 01:45 -3.93727 -59.82918 18553 ft 337 kts 335°
2026-04-28 01:45 -3.91634 -59.83966 18247 ft 336 kts 335°
2026-04-28 01:45 -3.89551 -59.85008 17905 ft 334 kts 335°
2026-04-28 01:46 -3.88178 -59.85696 17698 ft 333 kts 335°
2026-04-28 01:46 -3.86112 -59.86730 17375 ft 331 kts 335°
2026-04-28 01:46 -3.84064 -59.87756 17046 ft 329 kts 335°
2026-04-28 01:46 -3.82021 -59.88778 16736 ft 327 kts 335°
2026-04-28 01:47 -3.79997 -59.89791 16418 ft 325 kts 335°
2026-04-28 01:47 -3.77970 -59.90806 16100 ft 324 kts 335°
2026-04-28 01:47 -3.75957 -59.91813 15799 ft 322 kts 335°
2026-04-28 01:47 -3.73961 -59.92812 15492 ft 320 kts 335°
2026-04-28 01:48 -3.71970 -59.93809 15188 ft 319 kts 335°
2026-04-28 01:48 -3.69990 -59.94800 14895 ft 317 kts 335°
2026-04-28 01:48 -3.68017 -59.95787 14608 ft 316 kts 335°
2026-04-28 01:48 -3.66065 -59.96764 14316 ft 312 kts 335°
2026-04-28 01:49 -3.64134 -59.97730 13891 ft 309 kts 335°
2026-04-28 01:49 -3.62248 -59.98674 13364 ft 309 kts 335°
2026-04-28 01:49 -3.60300 -59.99648 12869 ft 307 kts 335°
2026-04-28 01:49 -3.58396 -60.00601 12408 ft 305 kts 335°
2026-04-28 01:50 -3.56499 -60.01550 11997 ft 306 kts 335°
2026-04-28 01:50 -3.54606 -60.02497 11736 ft 303 kts 335°
2026-04-28 01:50 -3.52732 -60.03434 11468 ft 300 kts 335°
2026-04-28 01:50 -3.50868 -60.04367 11197 ft 298 kts 335°
2026-04-28 01:51 -3.49024 -60.05290 10962 ft 294 kts 336°
2026-04-28 01:51 -3.47203 -60.06200 10741 ft 291 kts 336°
2026-04-28 01:51 -3.45398 -60.07103 10477 ft 289 kts 336°
2026-04-28 01:51 -3.43598 -60.08003 10189 ft 289 kts 336°
2026-04-28 01:52 -3.42041 -60.08782 9953 ft 288 kts 336°
2026-04-28 01:52 -3.40226 -60.09689 9695 ft 285 kts 336°
2026-04-28 01:52 -3.38450 -60.10577 9395 ft 285 kts 336°
2026-04-28 01:52 -3.36685 -60.11460 9112 ft 283 kts 336°
2026-04-28 01:53 -3.34930 -60.12338 8824 ft 282 kts 336°
2026-04-28 01:53 -3.33186 -60.13210 8547 ft 280 kts 336°
2026-04-28 01:53 -3.31440 -60.14083 8277 ft 279 kts 336°
2026-04-28 01:53 -3.29709 -60.14948 8000 ft 277 kts 336°
2026-04-28 01:54 -3.28026 -60.15789 7633 ft 273 kts 336°
2026-04-28 01:54 -3.26329 -60.16638 7177 ft 273 kts 335°
2026-04-28 01:54 -3.24630 -60.17487 6773 ft 272 kts 335°
2026-04-28 01:54 -3.22935 -60.18335 6386 ft 270 kts 335°
2026-04-28 01:55 -3.21264 -60.19170 5963 ft 268 kts 335°
2026-04-28 01:55 -3.19605 -60.20000 5535 ft 266 kts 335°
2026-04-28 01:55 -3.17956 -60.20824 5134 ft 265 kts 335°
2026-04-28 01:55 -3.16302 -60.21650 4857 ft 265 kts 335°
2026-04-28 01:56 -3.14664 -60.22467 4627 ft 262 kts 336°
2026-04-28 01:56 -3.12924 -60.22900 4337 ft 257 kts
2026-04-28 01:56 -3.11158 -60.22882 4197 ft 250 kts
2026-04-28 01:56 -3.09466 -60.22869 4099 ft 234 kts
2026-04-28 01:57 -3.07920 -60.22863 3952 ft 211 kts
2026-04-28 01:57 -3.06528 -60.22859 3800 ft 190 kts
2026-04-28 01:57 -3.05288 -60.22606 3433 ft 179 kts 31°
2026-04-28 01:57 -3.04420 -60.21787 3263 ft 168 kts 66°
2026-04-28 01:58 -3.04141 -60.20728 3116 ft 149 kts 78°
2026-04-28 01:58 -3.03999 -60.19723 2904 ft 143 kts 83°
2026-04-28 01:58 -3.03898 -60.18731 2723 ft 145 kts 84°
2026-04-28 01:58 -3.03855 -60.17717 2547 ft 149 kts 87°
2026-04-28 01:59 -3.03840 -60.16695 2277 ft 144 kts 88°
2026-04-28 01:59 -3.03837 -60.15698 2078 ft 144 kts 88°
2026-04-28 01:59 -3.03838 -60.14701 1889 ft 142 kts 88°
2026-04-28 01:59 -3.03840 -60.13717 1701 ft 141 kts 88°
2026-04-28 02:00 -3.03842 -60.12744 1526 ft 143 kts 88°
2026-04-28 02:00 -3.03844 -60.11751 1346 ft 143 kts 89°
2026-04-28 02:00 -3.03847 -60.10756 1159 ft 143 kts 89°
2026-04-28 02:00 -3.03849 -60.09759 975 ft 143 kts 89°
2026-04-28 02:01 -3.03851 -60.08760 796 ft 144 kts 89°
2026-04-28 02:01 -3.03855 -60.07749 611 ft 146 kts 90°
2026-04-28 02:01 -3.03860 -60.06739 415 ft 145 kts 89°
2026-04-28 02:01 -3.03858 -60.05756 269 ft 133 kts 90°
2026-04-28 02:02 -3.03860 -60.04944 267 ft 100 kts 90°
2026-04-28 02:02 -3.03862 -60.04370 269 ft 66 kts 90°
2026-04-28 02:02 -3.03861 -60.04018 268 ft 45 kts 90°
2026-04-28 02:02 -3.03856 -60.03819 267 ft 23 kts 63°
2026-04-28 02:03 -3.03723 -60.03783 268 ft 22 kts 326°
2026-04-28 02:03 -3.03663 -60.03917 267 ft 21 kts 286°
2026-04-28 02:03 -3.03626 -60.04058 267 ft 21 kts 285°
2026-04-28 02:03 -3.03588 -60.04195 267 ft 20 kts 290°
2026-04-28 02:04 -3.03514 -60.04309 267 ft 19 kts 316°
2026-04-28 02:04 -3.03399 -60.04373 267 ft 19 kts 345°
2026-04-28 02:04 -3.03335 -60.04442 267 ft 15 kts 261°
2026-04-28 02:04 -3.03354 -60.04542 267 ft 14 kts 260°
2026-04-28 02:05 -3.03339 -60.04622 267 ft 7 kts 337°
2026-04-28 02:05 -3.03290 -60.04623 267 ft 7 kts
2026-04-28 02:05 -3.03277 -60.04623 267 ft 1 kts
2026-04-28 02:05 -3.03273 -60.04623 267 ft 0 kts